Big Sur

United States     35˚58′17″N   121˚27′10″W
temp.,
°C
wind,
m/s
gust,
m/s
humid.,
%
clouds,
%
prec.,
mm/h
press.,
hPa
HPBL,
m
29 november, sun
sun2901:00+12˚ene33430 0.0 102126
04:00+11˚ne22470 0.0 102223
07:00+11˚ne22472 0.0 102223
10:00+16˚s11421 0.0 1022148
13:00+16˚wnw11400 0.0 1020280
16:00+13˚nnw225133 0.0 102135
19:00+12˚n1254100 0.0 102229
22:00+12˚ene2249100 0.0 102324
30 november, mon
mon3001:00+12˚ene2245100 0.0 102323
04:00+12˚ene234565 0.0 102325
07:00+11˚ne22450 0.0 102325
10:00+16˚e12390 0.0 1024172
13:00+17˚nw12380 0.0 1023429
16:00+15˚nnw22440 0.0 102232
19:00+13˚ne33410 0.0 102331
22:00+13˚ene33380 0.0 102427
1 december, tue
tue101:00+13˚ene22430 0.0 102324
04:00+12˚ene22540 0.0 102225
07:00+12˚ene22590 0.0 102225
10:00+15˚s12510 0.0 1022154
13:00+16˚nw12490 0.0 1019226
16:00+15˚nnw22560 0.0 101842
19:00+13˚ne22530 0.0 101825
22:00+13˚ene23490 0.0 101924
2 december, wed
wed201:00+13˚ene23480 0.0 101824
04:00+12˚ene22470 0.0 101824
07:00+12˚ene22460 0.0 101823
10:00+16˚s11420 0.0 1019132
13:00+17˚w11420 0.0 1017230
16:00+15˚nnw22480 0.0 101733
19:00+13˚nne22510 0.0 101828
22:00+13˚ene22480 0.0 101924
3 december, thu
thu301:00+13˚ene34430 0.0 101929
04:00+13˚ene22499 0.0 102024
07:00+13˚ene224787 0.0 102123
10:00+16˚s234079 0.0 1023103
13:00+15˚ssw124393 0.0 1022406
16:00+15˚se233896 0.0 102248
19:00+12˚ene11437 0.0 102223
22:00+11˚n11464 0.0 102322